This is the latest recevied weather packets stored in our database for station/object WP4PW. If no packets are shown the sender has not sent any weather packets the latest 10 day(s).
| Time | Temp. | Humidity | Pressure | Rain* | Wind** | Luminosity | Snow |
|---|---|---|---|---|---|---|---|
| 1777748542 | 30.56° C | 74% | 1019.1 hPa | 0 mm | - | 594 W/m² | - |
| 1777748241 | 30° C | 75% | 1019.3 hPa | 0 mm | - | 608 W/m² | - |
| 1777747938 | 30° C | 75% | 1018.9 hPa | 0 mm | - | 620 W/m² | - |
| 1777747634 | 30° C | 75% | 1019.4 hPa | 0 mm | - | 633 W/m² | - |
| 1777747330 | 30° C | 75% | 1019.4 hPa | 0 mm | - | 648 W/m² | - |
| 1777747027 | 30° C | 74% | 1019.3 hPa | 0 mm | - | 665 W/m² | - |
| 1777746723 | 30.56° C | 74% | 1019.6 hPa | 0 mm | - | 667 W/m² | - |
| 1777746418 | 30° C | 77% | 1019.4 hPa | 0 mm | - | 662 W/m² | - |
| 1777746114 | 30° C | 79% | 1019.5 hPa | 0 mm | - | 688 W/m² | - |
| 1777745812 | 30° C | 78% | 1019.4 hPa | 0 mm | - | 762 W/m² | - |
| 1777745510 | 30.56° C | 76% | 1019.6 hPa | 0 mm | - | 716 W/m² | - |
| 1777745207 | 30° C | 78% | 1019.6 hPa | 0 mm | - | 723 W/m² | - |
| 1777744904 | 30° C | 79% | 1019.9 hPa | 0 mm | - | 730 W/m² | - |
| 1777744603 | 29.44° C | 77% | 1019.9 hPa | 0 mm | - | 743 W/m² | - |
| 1777744299 | 30° C | 76% | 1019.9 hPa | 0 mm | - | 747 W/m² | - |
| 1777743997 | 30° C | 76% | 1020 hPa | 0 mm | - | 757 W/m² | - |
| 1777743692 | 30° C | 76% | 1020.2 hPa | 0 mm | - | 768 W/m² | - |
| 1777743390 | 30° C | 77% | 1020.2 hPa | 0 mm | - | 772 W/m² | - |
| 1777743088 | 30° C | 77% | 1020.4 hPa | 0 mm | - | 780 W/m² | - |
| 1777742785 | 30° C | 77% | 1020.5 hPa | 0 mm | - | 787 W/m² | - |
| 1777742482 | 30° C | 79% | 1020.5 hPa | 0 mm | - | 788 W/m² | - |
| 1777742177 | 30° C | 78% | 1020.6 hPa | 0 mm | - | 795 W/m² | - |
| 1777741874 | 30° C | 78% | 1020.7 hPa | 0 mm | - | 795 W/m² | - |
| 1777741571 | 29.44° C | 78% | 1020.6 hPa | 0 mm | - | 805 W/m² | - |
| 1777741269 | 29.44° C | 80% | 1020.8 hPa | 0 mm | - | 809 W/m² | - |
* Rain latest hour (hover to see other rain measurements)
** Current wind speed in m/s (hover to see current wind gust speed)